Home   Weather   Fairfield   Past weeks
Flag for USA

Past Weather in Fairfield, Virginia, USA — Yesterday and Last 2 Weeks

Now
53 °F

Passing clouds.


Feels Like: 49 °F
Forecast: 52 / 38 °F
Wind: 12 mph from West

Location: Roanoke Regional Airport

Current Time: Dec 15, 2019 at 5:02:18 pm

Latest Report: Dec 15, 2019 at 3:54 pm


Visibility: 10 mi

Pressure: 30.08 "Hg

Humidity: 38%

Dew Point: 28 °F

Location of FairfieldLocation

Past Weather in Fairfield — Graph

°F

Fairfield Temperature Yesterday

Maximum temperature yesterday: 54 °F (at 12:54 pm)
Minimum temperature yesterday: 37 °F (at 3:20 am)
Average temperature yesterday: 43 °F

High & Low Weather Summary for the Past Weeks

 TemperatureHumidityPressure
High56 °F (Dec 10, 1:54 pm)100% (Nov 30, 11:14 pm)30.73 "Hg (Nov 30, 11:14 pm)
Low24 °F (Dec 12, 6:54 am)23% (Dec 5, 2:54 pm)29.45 "Hg (Dec 14, 12:54 pm)
Average40 °F71%30.03 "Hg
* Reported Nov 30 3:54 pm — Dec 15 3:54 pm, Fairfield. Weather by CustomWeather, © 2019

Note: Actual official high and low records may vary slightly from our data, if they occured in-between our weather recording intervals... More about our weather records

Fairfield Weather History for the Previous 24 Hours

Scroll right to see more
 ConditionsComfort  
Time TempWeatherWind HumidityBarometerVisibility
3:54 pm
Sun, Dec 15
53 °FPassing clouds.12 mph38%30.08 "Hg10 mi
2:54 pm54 °FSunny.9 mph37%30.06 "Hg10 mi
1:54 pm52 °FSunny.14 mph38%30.05 "Hg10 mi
12:54 pm52 °FSunny.9 mph41%30.05 "Hg10 mi
11:54 am51 °FPassing clouds.18 mph42%30.05 "Hg10 mi
10:54 am50 °FPassing clouds.14 mph46%30.05 "Hg10 mi
9:54 am49 °FPassing clouds.9 mph50%30.03 "Hg10 mi
8:54 am46 °FPassing clouds.14 mph54%30.01 "Hg10 mi
7:54 am46 °FScattered clouds.14 mph54%29.97 "Hg10 mi
6:54 am45 °FPassing clouds.12 mph56%29.94 "Hg10 mi
5:54 am45 °FPassing clouds.12 mph60%29.92 "Hg10 mi
4:54 am45 °FOvercast.8 mph63%29.89 "Hg10 mi
3:54 am43 °FPassing clouds.8 mph65%29.86 "Hg10 mi
2:54 am43 °FPassing clouds.8 mph65%29.85 "Hg10 mi
1:54 am44 °FPassing clouds.7 mph60%29.83 "Hg10 mi
12:54 am43 °FPassing clouds.9 mph60%29.81 "Hg10 mi
11:54 pm
Sat, Dec 14
44 °FPassing clouds.16 mph60%29.80 "Hg10 mi
10:54 pm44 °FPassing clouds.18 mph63%29.79 "Hg10 mi
9:54 pm44 °FPassing clouds.10 mph60%29.76 "Hg10 mi
8:54 pm44 °FPartly cloudy.14 mph63%29.73 "Hg10 mi
7:54 pm44 °FOvercast.9 mph63%29.72 "Hg10 mi
6:54 pm45 °FPassing clouds.20 mph58%29.70 "Hg10 mi
5:54 pm46 °FPassing clouds.24 mph58%29.65 "Hg10 mi
Weather by CustomWeather, © 2019

See weather overview

Advertising